When you browse on this site, cookies collect data to enhance your experience and personalize the content and advertising you see.
Visit our Privacy Policy to learn more. By continuing to use the site, you agree to this use of cookies and data.
  • In Spain
  • List of Countries
  • For 7 days
  • Water Temperature
  • Weather Map
  • Weather Widgets
  • user-avatar
    Login

    Hourly Weather Melbourne

    Today, 6 June, Saturday

    Time Temperature Precipitation Wind Pressure Humidity
    00:00 +8°C° 0 mm 2 mps 769 mmHg 79%
    01:00 +8°C° 0 mm 1 mps 769 mmHg 80%
    02:00 +8°C° 0 mm 1 mps 769 mmHg 81%
    03:00 +8°C° 0 mm 1 mps 768 mmHg 82%
    04:00 +7°C° 0 mm 2 mps 768 mmHg 83%
    05:00 +7°C° 0 mm 2 mps 768 mmHg 84%
    06:00 +8°C° 0 mm 1 mps 768 mmHg 84%
    07:00 +8°C° 0 mm 1 mps 768 mmHg 85%
    08:00 +9°C° 0 mm 1 mps 768 mmHg 80%
    09:00 +10°C° 0 mm 1 mps 768 mmHg 76%
    10:00 +12°C° 0 mm 1 mps 768 mmHg 72%
    11:00 +12°C° 0 mm 1 mps 768 mmHg 70%
    12:00 +13°C° 0 mm 1 mps 767 mmHg 69%
    13:00 +14°C° 0 mm 2 mps 767 mmHg 67%
    14:00 +13°C° 0 mm 2 mps 767 mmHg 73%
    15:00 +13°C° 0 mm 2 mps 767 mmHg 78%
    16:00 +12°C° 0 mm 2 mps 767 mmHg 83%
    17:00 +12°C° 0 mm 2 mps 767 mmHg 82%
    18:00 +12°C° 0 mm 2 mps 767 mmHg 81%
    19:00 +10°C° 0 mm 2 mps 767 mmHg 80%
    20:00 +10°C° 0 mm 2 mps 767 mmHg 78%
    21:00 +10°C° 0 mm 3 mps 767 mmHg 76%
    22:00 +10°C° 0 mm 3 mps 767 mmHg 74%
    23:00 +10°C° 0 mm 3 mps 767 mmHg 74%

    Tomorrow, 7 June, Sunday

    Time Temperature Precipitation Wind Pressure Humidity
    00:00 +10°C° 0 mm 3 mps 767 mmHg 73%
    01:00 +9°C° 0 mm 2 mps 767 mmHg 72%
    02:00 +9°C° 0 mm 3 mps 767 mmHg 72%
    03:00 +9°C° 0 mm 3 mps 767 mmHg 71%
    04:00 +9°C° 0 mm 3 mps 767 mmHg 71%
    05:00 +9°C° 0 mm 2 mps 767 mmHg 70%
    06:00 +9°C° 0 mm 2 mps 767 mmHg 70%
    07:00 +9°C° 0 mm 2 mps 768 mmHg 70%
    08:00 +9°C° 0 mm 2 mps 768 mmHg 69%
    09:00 +10°C° 0 mm 2 mps 768 mmHg 68%
    10:00 +10°C° 0 mm 2 mps 769 mmHg 67%
    11:00 +11°C° 0 mm 3 mps 768 mmHg 63%
    12:00 +11°C° 0 mm 3 mps 768 mmHg 59%
    13:00 +12°C° 0 mm 3 mps 767 mmHg 56%
    14:00 +12°C° 0 mm 3 mps 767 mmHg 56%
    15:00 +11°C° 0 mm 3 mps 767 mmHg 57%
    16:00 +11°C° 0 mm 3 mps 768 mmHg 58%
    17:00 +11°C° 0 mm 3 mps 768 mmHg 58%
    18:00 +10°C° 0 mm 2 mps 769 mmHg 59%
    19:00 +10°C° 0 mm 2 mps 769 mmHg 60%
    20:00 +9°C° 0 mm 2 mps 770 mmHg 62%
    21:00 +9°C° 0 mm 2 mps 770 mmHg 64%
    22:00 +8°C° 0 mm 2 mps 770 mmHg 66%
    23:00 +9°C° 0 mm 1 mps 770 mmHg 68%

    Day after tomorrow, 8 June, Monday

    Time Temperature Precipitation Wind Pressure Humidity
    00:00 +8°C° 0 mm 1 mps 770 mmHg 69%
    01:00 +8°C° 0 mm 1 mps 770 mmHg 71%
    02:00 +7°C° 0 mm 1 mps 770 mmHg 73%
    03:00 +7°C° 0 mm 1 mps 770 mmHg 74%
    04:00 +7°C° 0 mm 1 mps 770 mmHg 76%
    05:00 +7°C° 0 mm 1 mps 771 mmHg 77%
    06:00 +6°C° 0 mm 1 mps 771 mmHg 78%
    07:00 +6°C° 0 mm 1 mps 771 mmHg 79%
    08:00 +8°C° 0 mm 1 mps 772 mmHg 74%
    09:00 +9°C° 0 mm 1 mps 772 mmHg 69%
    10:00 +10°C° 0 mm 1 mps 772 mmHg 63%
    11:00 +12°C° 0 mm 1 mps 772 mmHg 59%
    12:00 +13°C° 0 mm 1 mps 772 mmHg 55%
    13:00 +14°C° 0 mm 1 mps 771 mmHg 51%
    14:00 +13°C° 0 mm 1 mps 771 mmHg 54%
    15:00 +13°C° 0 mm 1 mps 771 mmHg 56%
    16:00 +13°C° 0 mm 1 mps 771 mmHg 58%
    17:00 +12°C° 0 mm 1 mps 772 mmHg 63%
    18:00 +9°C° 0 mm 0 mps 772 mmHg 68%
    19:00 +8°C° 0 mm 0 mps 772 mmHg 74%
    20:00 +8°C° 0 mm 0 mps 773 mmHg 76%
    21:00 +8°C° 0 mm 1 mps 773 mmHg 78%
    22:00 +8°C° 0 mm 1 mps 773 mmHg 80%
    23:00 +8°C° 0 mm 1 mps 773 mmHg 81%

    9 June, Tuesday

    Time Temperature Precipitation Wind Pressure Humidity
    00:00 +7°C° 0 mm 1 mps 773 mmHg 81%
    01:00 +7°C° 0 mm 1 mps 773 mmHg 82%
    02:00 +7°C° 0 mm 1 mps 773 mmHg 83%
    03:00 +7°C° 0 mm 1 mps 773 mmHg 83%
    04:00 +6°C° 0 mm 1 mps 773 mmHg 83%
    05:00 +6°C° 0 mm 1 mps 773 mmHg 83%
    06:00 +6°C° 0 mm 1 mps 773 mmHg 82%
    07:00 +5°C° 0 mm 2 mps 773 mmHg 81%
    08:00 +6°C° 0 mm 2 mps 773 mmHg 75%
    09:00 +8°C° 0 mm 2 mps 773 mmHg 69%
    10:00 +9°C° 0 mm 2 mps 773 mmHg 62%
    11:00 +12°C° 0 mm 2 mps 773 mmHg 58%
    12:00 +13°C° 0 mm 2 mps 772 mmHg 54%
    13:00 +15°C° 0 mm 2 mps 772 mmHg 50%
    14:00 +14°C° 0 mm 2 mps 771 mmHg 53%
    15:00 +14°C° 0 mm 2 mps 771 mmHg 57%
    16:00 +14°C° 0 mm 2 mps 771 mmHg 61%
    17:00 +12°C° 0 mm 2 mps 771 mmHg 66%
    18:00 +10°C° 0 mm 3 mps 771 mmHg 72%
    19:00 +9°C° 0 mm 3 mps 771 mmHg 78%
    20:00 +9°C° 0 mm 3 mps 771 mmHg 80%
    21:00 +8°C° 0 mm 3 mps 771 mmHg 81%
    22:00 +8°C° 0 mm 3 mps 771 mmHg 83%
    23:00 +8°C° 0 mm 2 mps 771 mmHg 83%

    10 June, Wednesday

    Time Temperature Precipitation Wind Pressure Humidity
    00:00 +8°C° 0 mm 2 mps 771 mmHg 83%
    01:00 +8°C° 0 mm 2 mps 771 mmHg 84%
    02:00 +7°C° 0 mm 2 mps 770 mmHg 84%
    03:00 +7°C° 0 mm 2 mps 770 mmHg 84%
    04:00 +7°C° 0 mm 2 mps 770 mmHg 85%
    05:00 +7°C° 0 mm 2 mps 770 mmHg 85%
    06:00 +7°C° 0 mm 2 mps 770 mmHg 86%
    07:00 +7°C° 0 mm 3 mps 770 mmHg 87%
    08:00 +8°C° 0 mm 3 mps 770 mmHg 81%
    09:00 +9°C° 0 mm 3 mps 770 mmHg 76%
    10:00 +10°C° 0 mm 3 mps 770 mmHg 71%
    11:00 +12°C° 0 mm 3 mps 769 mmHg 65%
    12:00 +13°C° 0 mm 3 mps 769 mmHg 58%
    13:00 +14°C° 0 mm 3 mps 768 mmHg 52%
    14:00 +14°C° 0 mm 3 mps 768 mmHg 53%
    15:00 +15°C° 0 mm 2 mps 767 mmHg 55%
    16:00 +15°C° 0 mm 2 mps 767 mmHg 56%
    17:00 +14°C° 0 mm 2 mps 767 mmHg 62%
    18:00 +12°C° 0 mm 2 mps 768 mmHg 68%
    19:00 +10°C° 0 mm 2 mps 768 mmHg 75%
    20:00 +9°C° 0 mm 2 mps 768 mmHg 76%
    21:00 +9°C° 0 mm 2 mps 768 mmHg 78%
    22:00 +8°C° 0 mm 2 mps 768 mmHg 79%
    23:00 +8°C° 0 mm 2 mps 768 mmHg 79%

    11 June, Thursday

    Time Temperature Precipitation Wind Pressure Humidity
    00:00 +8°C° 0 mm 2 mps 768 mmHg 78%
    01:00 +8°C° 0 mm 2 mps 768 mmHg 77%
    02:00 +8°C° 0 mm 2 mps 767 mmHg 77%
    03:00 +8°C° 0 mm 2 mps 767 mmHg 77%
    04:00 +7°C° 0 mm 2 mps 767 mmHg 76%
    05:00 +7°C° 0 mm 2 mps 767 mmHg 76%
    06:00 +7°C° 0 mm 2 mps 767 mmHg 76%
    07:00 +7°C° 0 mm 2 mps 767 mmHg 76%
    08:00 +8°C° 0 mm 3 mps 767 mmHg 72%
    09:00 +10°C° 0 mm 3 mps 767 mmHg 67%
    10:00 +11°C° 0 mm 3 mps 767 mmHg 62%
    11:00 +12°C° 0 mm 3 mps 767 mmHg 59%
    12:00 +15°C° 0 mm 2 mps 767 mmHg 55%
    13:00 +16°C° 0 mm 2 mps 766 mmHg 51%
    14:00 +15°C° 0.1 mm 2 mps 766 mmHg 57%
    15:00 +15°C° 0.1 mm 1 mps 766 mmHg 62%
    16:00 +14°C° 0.1 mm 1 mps 766 mmHg 67%
    17:00 +13°C° 0.3 mm 1 mps 766 mmHg 74%
    18:00 +13°C° 0.3 mm 1 mps 767 mmHg 81%
    19:00 +12°C° 0.3 mm 1 mps 767 mmHg 88%
    20:00 +12°C° 0.2 mm 1 mps 767 mmHg 88%
    21:00 +12°C° 0.2 mm 1 mps 767 mmHg 88%
    22:00 +11°C° 0.2 mm 1 mps 767 mmHg 88%
    23:00 +11°C° 0.1 mm 1 mps 767 mmHg 88%
    Show more